Time,TemperatureF,DewpointF,PressureIn,WindDirection,WindDirectionDegrees,WindSpeedMPH,WindSpeedGustMPH,Humidity,HourlyPrecipIn,Conditions,Clouds,dailyrainin,SoftwareType,DateUTC
2013-02-08 00:02:00,74.0,70.0,30.00,SSE,152,6.0,7.0,86,0.00,,,0.00,,2013-02-08 05:02:00,
2013-02-08 00:12:00,74.0,70.0,30.00,SSE,152,6.0,7.0,86,0.00,,,0.00,,2013-02-08 05:12:00,
2013-02-08 00:22:00,74.0,70.0,29.99,SSE,151,7.0,8.0,86,0.00,,,0.00,,2013-02-08 05:22:00,
2013-02-08 00:32:00,74.0,70.0,29.99,SSE,152,5.0,8.0,87,0.00,,,0.00,,2013-02-08 05:32:00,
2013-02-08 00:42:00,74.0,70.0,29.99,SSE,152,5.0,8.0,87,0.00,,,0.00,,2013-02-08 05:42:00,
2013-02-08 00:52:00,74.0,70.0,29.98,South,171,6.0,9.0,87,0.00,,,0.00,,2013-02-08 05:52:00,
2013-02-08 01:01:00,74.0,70.0,29.98,SSW,203,8.0,10.0,87,0.00,,,0.00,,2013-02-08 06:01:00,
2013-02-08 01:11:00,74.0,70.0,29.98,SSW,203,8.0,10.0,87,0.00,,,0.00,,2013-02-08 06:11:00,
2013-02-08 01:21:00,74.0,70.0,29.97,South,185,8.0,12.0,88,0.00,,,0.00,,2013-02-08 06:21:00,
2013-02-08 01:32:00,74.0,70.0,29.97,SSW,209,8.0,12.0,88,0.00,,,0.00,,2013-02-08 06:32:00,
2013-02-08 01:42:00,74.0,70.0,29.97,SSW,209,8.0,12.0,88,0.00,,,0.00,,2013-02-08 06:42:00,
2013-02-08 01:52:00,74.0,70.0,29.96,SSW,213,7.0,12.0,88,0.00,,,0.00,,2013-02-08 06:52:00,
2013-02-08 02:01:00,74.0,70.0,29.96,SSW,212,6.0,12.0,88,0.00,,,0.00,,2013-02-08 07:01:00,
2013-02-08 02:11:00,74.0,71.0,29.95,SW,220,7.0,10.0,89,0.00,,,0.00,,2013-02-08 07:11:00,
2013-02-08 02:21:00,74.0,71.0,29.95,SW,220,7.0,10.0,89,0.00,,,0.00,,2013-02-08 07:21:00,
2013-02-08 02:32:00,74.0,71.0,29.94,SW,224,7.0,11.0,89,0.00,,,0.00,,2013-02-08 07:32:00,
2013-02-08 02:42:00,74.0,71.0,29.94,WSW,250,6.0,13.0,89,0.00,,,0.00,,2013-02-08 07:42:00,
2013-02-08 02:52:00,74.0,71.0,29.94,WSW,250,6.0,13.0,89,0.00,,,0.00,,2013-02-08 07:52:00,
2013-02-08 03:01:00,74.0,71.0,29.93,South,177,10.0,13.0,89,0.00,,,0.00,,2013-02-08 08:01:00,
2013-02-08 03:11:00,74.0,71.0,29.93,SW,219,9.0,12.0,89,0.00,,,0.00,,2013-02-08 08:11:00,
2013-02-08 03:21:00,74.0,71.0,29.93,SW,219,9.0,12.0,89,0.00,,,0.00,,2013-02-08 08:21:00,
2013-02-08 03:32:00,74.0,71.0,29.93,SW,233,8.0,12.0,90,0.00,,,0.00,,2013-02-08 08:32:00,
2013-02-08 03:42:00,74.0,71.0,29.93,SW,233,8.0,12.0,90,0.00,,,0.00,,2013-02-08 08:42:00,
2013-02-08 03:52:00,74.0,71.0,29.93,SW,218,10.0,15.0,89,0.00,,,0.00,,2013-02-08 08:52:00,
2013-02-08 04:03:00,74.0,71.0,29.93,SSW,203,9.0,15.0,89,0.00,,,0.00,,2013-02-08 09:03:00,
2013-02-08 04:11:00,74.0,71.0,29.93,SSW,203,9.0,15.0,89,0.00,,,0.00,,2013-02-08 09:11:00,
2013-02-08 04:21:00,74.0,71.0,29.93,SW,229,11.0,14.0,89,0.00,,,0.00,,2013-02-08 09:21:00,
2013-02-08 04:32:00,74.0,71.0,29.93,SW,236,11.0,14.0,89,0.00,,,0.00,,2013-02-08 09:32:00,
2013-02-08 04:42:00,74.0,71.0,29.93,SW,236,11.0,14.0,89,0.00,,,0.00,,2013-02-08 09:42:00,
2013-02-08 04:52:00,74.0,71.0,29.93,WNW,285,9.0,19.0,89,0.00,,,0.00,,2013-02-08 09:52:00,
2013-02-08 05:01:00,74.0,71.0,29.93,WSW,252,9.0,14.0,89,0.00,,,0.00,,2013-02-08 10:01:00,
2013-02-08 05:12:00,74.0,71.0,29.93,WSW,252,9.0,14.0,89,0.00,,,0.00,,2013-02-08 10:12:00,
2013-02-08 05:22:00,74.0,71.0,29.93,SW,232,8.0,15.0,90,0.00,,,0.00,,2013-02-08 10:22:00,
2013-02-08 05:32:00,75.0,72.0,29.92,WSW,256,11.0,15.0,90,0.00,,,0.00,,2013-02-08 10:32:00,
2013-02-08 05:42:00,75.0,72.0,29.92,WSW,256,11.0,15.0,90,0.00,,,0.00,,2013-02-08 10:42:00,
2013-02-08 05:52:00,75.0,72.0,29.93,WNW,283,10.0,18.0,91,0.00,,,0.00,,2013-02-08 10:52:00,
2013-02-08 06:01:00,75.0,72.0,29.93,WSW,258,9.0,15.0,91,0.00,,,0.00,,2013-02-08 11:01:00,
2013-02-08 06:11:00,75.0,72.0,29.93,WSW,258,9.0,15.0,91,0.00,,,0.00,,2013-02-08 11:11:00,
2013-02-08 06:21:00,75.0,73.0,29.94,WSW,240,9.0,13.0,92,0.00,,,0.00,,2013-02-08 11:21:00,
2013-02-08 06:32:00,75.0,73.0,29.94,WSW,254,7.0,12.0,92,0.00,,,0.00,,2013-02-08 11:32:00,
2013-02-08 06:42:00,75.0,73.0,29.94,WSW,254,7.0,12.0,92,0.00,,,0.00,,2013-02-08 11:42:00,
2013-02-08 06:52:00,75.0,73.0,29.96,West,275,5.0,11.0,92,0.00,,,0.00,,2013-02-08 11:52:00,
2013-02-08 07:02:00,75.0,73.0,29.96,WSW,256,5.0,9.0,92,0.00,,,0.00,,2013-02-08 12:02:00,
2013-02-08 07:11:00,75.0,73.0,29.96,WSW,256,5.0,9.0,92,0.00,,,0.00,,2013-02-08 12:11:00,
2013-02-08 07:22:00,74.0,72.0,29.97,WSW,254,5.0,9.0,92,0.00,,,0.00,,2013-02-08 12:22:00,
2013-02-08 07:33:00,74.0,72.0,29.97,West,280,4.0,8.0,92,0.00,,,0.00,,2013-02-08 12:33:00,
2013-02-08 07:42:00,74.0,72.0,29.97,West,280,4.0,8.0,92,0.00,,,0.00,,2013-02-08 12:42:00,
2013-02-08 07:52:00,75.0,73.0,29.97,WSW,250,4.0,8.0,92,0.00,,,0.00,,2013-02-08 12:52:00,
2013-02-08 08:02:00,75.0,73.0,29.98,WSW,254,5.0,6.0,92,0.00,,,0.00,,2013-02-08 13:02:00,
2013-02-08 08:12:00,75.0,73.0,29.98,WSW,254,5.0,6.0,92,0.00,,,0.00,,2013-02-08 13:12:00,
2013-02-08 08:22:00,76.0,74.0,29.98,SW,229,3.0,8.0,92,0.00,,,0.00,,2013-02-08 13:22:00,
2013-02-08 08:32:00,76.0,73.0,29.98,WNW,285,2.0,7.0,91,0.00,,,0.00,,2013-02-08 13:32:00,
2013-02-08 08:42:00,76.0,73.0,29.98,WNW,285,2.0,7.0,91,0.00,,,0.00,,2013-02-08 13:42:00,
2013-02-08 08:52:00,76.0,73.0,29.99,SW,227,6.0,10.0,90,0.00,,,0.00,,2013-02-08 13:52:00,
2013-02-08 09:02:00,76.0,73.0,30.00,WSW,256,7.0,11.0,90,0.00,,,0.00,,2013-02-08 14:02:00,
2013-02-08 09:11:00,76.0,73.0,30.00,WSW,256,7.0,11.0,90,0.00,,,0.00,,2013-02-08 14:11:00,
2013-02-08 09:22:00,77.0,74.0,30.01,West,263,8.0,14.0,89,0.00,,,0.00,,2013-02-08 14:22:00,
2013-02-08 09:32:00,77.0,74.0,30.01,WNW,283,9.0,14.0,89,0.00,,,0.00,,2013-02-08 14:32:00,
2013-02-08 09:42:00,77.0,74.0,30.01,WNW,283,9.0,14.0,89,0.00,,,0.00,,2013-02-08 14:42:00,
2013-02-08 09:52:00,77.0,74.0,30.02,WSW,246,7.0,15.0,89,0.00,,,0.00,,2013-02-08 14:52:00,
2013-02-08 10:02:00,77.0,73.0,30.02,West,279,7.0,12.0,88,0.00,,,0.00,,2013-02-08 15:02:00,
2013-02-08 10:12:00,77.0,73.0,30.02,West,279,7.0,12.0,88,0.00,,,0.00,,2013-02-08 15:12:00,
2013-02-08 10:22:00,78.0,74.0,30.03,West,279,7.0,13.0,87,0.00,,,0.00,,2013-02-08 15:22:00,
2013-02-08 10:32:00,78.0,73.0,30.03,WNW,282,6.0,13.0,86,0.00,,,0.00,,2013-02-08 15:32:00,
2013-02-08 10:42:00,78.0,73.0,30.03,WNW,282,6.0,13.0,86,0.00,,,0.00,,2013-02-08 15:42:00,
2013-02-08 10:52:00,78.0,74.0,30.03,West,261,5.0,13.0,87,0.00,,,0.00,,2013-02-08 15:52:00,
2013-02-08 11:01:00,78.0,73.0,30.03,West,265,10.0,13.0,84,0.00,,,0.00,,2013-02-08 16:01:00,
2013-02-08 11:11:00,78.0,73.0,30.03,West,265,10.0,13.0,84,0.00,,,0.00,,2013-02-08 16:11:00,
2013-02-08 11:22:00,78.0,71.0,30.03,West,279,8.0,15.0,79,0.00,,,0.00,,2013-02-08 16:22:00,
2013-02-08 11:32:00,79.0,72.0,30.03,WNW,289,7.0,14.0,78,0.00,,,0.00,,2013-02-08 16:32:00,
2013-02-08 11:42:00,79.0,72.0,30.03,WNW,289,7.0,14.0,78,0.00,,,0.00,,2013-02-08 16:42:00,
2013-02-08 11:52:00,79.0,71.0,30.01,West,273,9.0,15.0,77,0.00,,,0.00,,2013-02-08 16:52:00,
2013-02-08 12:03:00,80.0,73.0,30.02,SW,221,6.0,13.0,80,0.00,,,0.00,,2013-02-08 17:03:00,
2013-02-08 12:12:00,80.0,73.0,30.02,SW,221,6.0,13.0,80,0.00,,,0.00,,2013-02-08 17:12:00,
2013-02-08 12:23:00,79.0,72.0,30.02,WNW,284,7.0,15.0,78,0.00,,,0.00,,2013-02-08 17:23:00,
2013-02-08 12:32:00,79.0,72.0,30.02,West,275,8.0,14.0,78,0.00,,,0.00,,2013-02-08 17:32:00,
2013-02-08 12:42:00,79.0,72.0,30.02,West,275,8.0,14.0,78,0.00,,,0.00,,2013-02-08 17:42:00,
2013-02-08 12:53:00,80.0,71.0,30.02,WNW,302,7.0,13.0,74,0.00,,,0.00,,2013-02-08 17:53:00,
2013-02-08 13:02:00,80.0,71.0,30.02,WNW,283,6.0,14.0,74,0.00,,,0.00,,2013-02-08 18:02:00,
2013-02-08 13:12:00,80.0,71.0,30.02,WNW,283,6.0,14.0,74,0.00,,,0.00,,2013-02-08 18:12:00,
2013-02-08 13:24:00,80.0,71.0,30.01,NNW,328,8.0,13.0,75,0.00,,,0.00,,2013-02-08 18:24:00,
2013-02-08 13:35:00,80.0,71.0,30.01,NW,304,8.0,14.0,75,0.00,,,0.00,,2013-02-08 18:35:00,
2013-02-08 13:43:00,80.0,71.0,30.01,NW,304,8.0,14.0,75,0.00,,,0.00,,2013-02-08 18:43:00,
2013-02-08 13:53:00,79.0,71.0,30.00,WNW,282,7.0,12.0,77,0.00,,,0.00,,2013-02-08 18:53:00,
2013-02-08 14:02:00,80.0,71.0,29.99,NW,304,7.0,10.0,75,0.00,,,0.00,,2013-02-08 19:02:00,
2013-02-08 14:11:00,80.0,71.0,29.99,NW,304,7.0,10.0,75,0.00,,,0.00,,2013-02-08 19:11:00,
2013-02-08 14:22:00,80.0,72.0,29.98,NW,317,6.0,11.0,76,0.00,,,0.00,,2013-02-08 19:22:00,
2013-02-08 14:32:00,79.0,70.0,29.99,WNW,302,10.0,13.0,75,0.00,,,0.00,,2013-02-08 19:32:00,
2013-02-08 14:42:00,79.0,70.0,29.99,WNW,302,10.0,13.0,75,0.00,,,0.00,,2013-02-08 19:42:00,
2013-02-08 14:52:00,79.0,72.0,29.98,NW,314,9.0,12.0,78,0.00,,,0.00,,2013-02-08 19:52:00,
2013-02-08 15:02:00,78.0,71.0,29.99,NW,311,9.0,13.0,78,0.00,,,0.00,,2013-02-08 20:02:00,
2013-02-08 15:12:00,78.0,71.0,29.99,NW,311,9.0,13.0,78,0.00,,,0.00,,2013-02-08 20:12:00,
2013-02-08 15:22:00,78.0,71.0,29.99,NNW,329,11.0,14.0,80,0.00,,,0.00,,2013-02-08 20:22:00,
2013-02-08 15:32:00,78.0,72.0,29.98,NW,325,10.0,14.0,81,0.00,,,0.00,,2013-02-08 20:32:00,
2013-02-08 15:42:00,78.0,72.0,29.98,NW,325,10.0,14.0,81,0.00,,,0.00,,2013-02-08 20:42:00,
2013-02-08 15:52:00,78.0,71.0,29.97,NW,319,7.0,13.0,79,0.00,,,0.00,,2013-02-08 20:52:00,
2013-02-08 16:02:00,79.0,72.0,29.97,NW,312,7.0,13.0,78,0.00,,,0.00,,2013-02-08 21:02:00,
2013-02-08 16:11:00,79.0,72.0,29.97,NW,312,7.0,13.0,78,0.00,,,0.00,,2013-02-08 21:11:00,
2013-02-08 16:22:00,79.0,71.0,29.97,ENE,65,7.0,12.0,77,0.00,,,0.00,,2013-02-08 21:22:00,
2013-02-08 16:32:00,78.0,71.0,29.97,WNW,283,7.0,15.0,78,0.00,,,0.00,,2013-02-08 21:32:00,
2013-02-08 16:42:00,78.0,71.0,29.97,WNW,283,7.0,15.0,78,0.00,,,0.00,,2013-02-08 21:42:00,
2013-02-08 16:52:00,78.0,71.0,29.97,NW,317,9.0,13.0,80,0.00,,,0.00,,2013-02-08 21:52:00,
2013-02-08 17:02:00,78.0,72.0,29.97,West,280,9.0,12.0,81,0.00,,,0.00,,2013-02-08 22:02:00,
2013-02-08 17:11:00,78.0,72.0,29.97,West,280,9.0,12.0,81,0.00,,,0.00,,2013-02-08 22:11:00,
2013-02-08 17:22:00,77.0,71.0,29.97,NW,309,7.0,13.0,83,0.00,,,0.00,,2013-02-08 22:22:00,
2013-02-08 17:32:00,77.0,72.0,29.97,NW,310,7.0,14.0,84,0.00,,,0.00,,2013-02-08 22:32:00,
2013-02-08 17:42:00,77.0,72.0,29.97,NW,310,7.0,14.0,84,0.00,,,0.00,,2013-02-08 22:42:00,
2013-02-08 17:52:00,76.0,72.0,29.97,North,352,8.0,13.0,86,0.00,,,0.00,,2013-02-08 22:52:00,
2013-02-08 18:01:00,76.0,72.0,29.98,NW,313,9.0,12.0,86,0.00,,,0.00,,2013-02-08 23:01:00,
2013-02-08 18:11:00,76.0,72.0,29.98,NW,313,9.0,12.0,86,0.00,,,0.00,,2013-02-08 23:11:00,
2013-02-08 18:22:00,75.0,71.0,29.98,NW,321,9.0,13.0,88,0.00,,,0.00,,2013-02-08 23:22:00,
2013-02-08 18:32:00,75.0,72.0,29.98,NW,304,7.0,11.0,89,0.00,,,0.00,,2013-02-08 23:32:00,
2013-02-08 18:42:00,75.0,72.0,29.98,NW,304,7.0,11.0,89,0.00,,,0.00,,2013-02-08 23:42:00,
2013-02-08 18:52:00,75.0,72.0,29.99,NNW,328,6.0,11.0,90,0.00,,,0.00,,2013-02-08 23:52:00,
2013-02-08 19:02:00,74.0,71.0,29.99,WNW,300,7.0,12.0,90,0.00,,,0.00,,2013-02-09 00:02:00,
2013-02-08 19:11:00,74.0,71.0,29.99,WNW,300,7.0,12.0,90,0.00,,,0.00,,2013-02-09 00:11:00,
2013-02-08 19:22:00,74.0,71.0,29.99,WNW,301,7.0,11.0,89,0.00,,,0.00,,2013-02-09 00:22:00,
2013-02-08 19:32:00,74.0,71.0,29.99,NW,315,5.0,10.0,90,0.00,,,0.00,,2013-02-09 00:32:00,
2013-02-08 19:42:00,74.0,71.0,29.99,NW,315,5.0,10.0,90,0.00,,,0.00,,2013-02-09 00:42:00,
2013-02-08 19:52:00,74.0,72.0,30.00,NW,311,7.0,10.0,92,0.00,,,0.00,,2013-02-09 00:52:00,
2013-02-08 20:01:00,73.0,71.0,30.00,NW,313,5.0,10.0,92,0.00,,,0.00,,2013-02-09 01:01:00,
2013-02-08 20:11:00,73.0,71.0,30.00,NW,313,5.0,10.0,92,0.00,,,0.00,,2013-02-09 01:11:00,
2013-02-08 20:22:00,73.0,71.0,30.01,NW,308,6.0,8.0,92,0.00,,,0.00,,2013-02-09 01:22:00,
2013-02-08 20:32:00,73.0,71.0,30.01,NW,317,3.0,7.0,92,0.00,,,0.00,,2013-02-09 01:32:00,
2013-02-08 20:42:00,73.0,71.0,30.01,NW,317,3.0,7.0,92,0.00,,,0.00,,2013-02-09 01:42:00,
2013-02-08 20:52:00,73.0,71.0,30.01,NW,313,5.0,10.0,93,0.00,,,0.00,,2013-02-09 01:52:00,
2013-02-08 21:01:00,73.0,71.0,30.02,NW,315,5.0,10.0,93,0.00,,,0.00,,2013-02-09 02:01:00,
2013-02-08 21:11:00,73.0,71.0,30.02,NW,306,2.0,6.0,92,0.00,,,0.00,,2013-02-09 02:11:00,
2013-02-08 21:21:00,73.0,71.0,30.02,NW,306,2.0,6.0,92,0.00,,,0.00,,2013-02-09 02:21:00,
2013-02-08 21:32:00,73.0,71.0,30.02,WNW,288,4.0,8.0,92,0.00,,,0.00,,2013-02-09 02:32:00,
2013-02-08 21:42:00,73.0,71.0,30.02,WNW,288,4.0,8.0,92,0.00,,,0.00,,2013-02-09 02:42:00,
2013-02-08 21:53:00,73.0,71.0,30.03,WNW,300,5.0,9.0,92,0.00,,,0.00,,2013-02-09 02:53:00,
2013-02-08 22:02:00,73.0,70.0,30.02,NW,308,4.0,11.0,91,0.00,,,0.00,,2013-02-09 03:02:00,
2013-02-08 22:11:00,73.0,70.0,30.02,NW,308,4.0,11.0,91,0.00,,,0.00,,2013-02-09 03:11:00,
2013-02-08 22:22:00,73.0,70.0,30.02,NW,305,7.0,10.0,91,0.00,,,0.00,,2013-02-09 03:22:00,
2013-02-08 22:32:00,73.0,70.0,30.03,WNW,290,6.0,9.0,91,0.00,,,0.00,,2013-02-09 03:32:00,
2013-02-08 22:42:00,73.0,70.0,30.03,WNW,290,6.0,9.0,91,0.00,,,0.00,,2013-02-09 03:42:00,
2013-02-08 22:53:00,73.0,70.0,30.03,NW,306,6.0,11.0,91,0.00,,,0.00,,2013-02-09 03:53:00,
2013-02-08 23:03:00,73.0,70.0,30.03,NW,321,6.0,10.0,91,0.00,,,0.00,,2013-02-09 04:03:00,
2013-02-08 23:12:00,72.0,69.0,30.03,NW,316,9.0,13.0,90,0.00,,,0.00,,2013-02-09 04:12:00,
2013-02-08 23:23:00,72.0,69.0,30.03,NW,316,9.0,13.0,90,0.00,,,0.00,,2013-02-09 04:23:00,
2013-02-08 23:32:00,72.0,69.0,30.03,NW,320,8.0,12.0,90,0.00,,,0.00,,2013-02-09 04:32:00,
2013-02-08 23:42:00,72.0,69.0,30.03,NW,320,8.0,12.0,90,0.00,,,0.00,,2013-02-09 04:42:00,
2013-02-08 23:52:00,72.0,69.0,30.03,NW,323,8.0,13.0,89,0.00,,,0.00,,2013-02-09 04:52:00,